Regional Weather Roundup
Issued by NWS Bismarck, ND

Home | Current Version | Previous Version | Text Only | Print | Product List | Glossary On
Versions: 1 2 3 4 5 6 7 8 9 10 11 12 13 14 15 16 17 18 19 20 21 22 23 24 25 26 27 28 29 30 31 32 33 34 35 36 37 38 39 40 41 42 43 44 45 46 47 48 49 50
000
ASUS43 KBIS 280110
RWRBIS

NWR BROADCAST TEXT
NATIONAL WEATHER SERVICE BISMARCK ND
800 PM CDT THU APR 27 2017

NOTE: "FAIR" INDICATES FEW OR NO CLOUDS BELOW 12,000 FEET WITH NO
SIGNIFICANT WEATHER AND/OR OBSTRUCTIONS TO VISIBILITY.


CITY           SKY/WX    TMP DP  RH WIND       PRES   REMARKS
WILLISTON      FAIR      51  16  24 E8        29.77R
MINOT          FAIR      50  22  33 N12       29.76R
MINOT AFB      FAIR      49  22  34 NE13      29.76R
BISMARCK       FAIR      50  24  36 NE9       29.75R
DICKINSON      FAIR      47  19  33 NE12      29.71R
GARRISON         N/A     48  19  31 NE7       29.75R
HETTINGER ARPT FAIR      48  25  40 E10       29.72R
JAMESTOWN      MOCLDY    45  30  55 N13       29.72R
HAZEN          FAIR      50  18  27 MISG      29.77R
LINTON           N/A     48  28  46 NE8G15    29.75R
MANDAN         FAIR      48  25  40 NE9       29.74S
STANLEY        FAIR      46  10  23 NE9       29.79S
TIOGA          FAIR      46   9  21 E9        29.79R
WATFORD CITY   FAIR      48  14  25 E8        29.76R
$$

CITY           SKY/WX    TMP DP  RH WIND       PRES   REMARKS
GRAND FORKS    FAIR      39  31  72 E6        29.71R
GRAND FORKS AF MOCLDY    40  31  70 NE6       29.72R
DEVILS LAKE    CLOUDY    43  27  53 N16       29.76R
FARGO          CLOUDY    40  30  67 NE5       29.71R
CAVALIER       FAIR      39  28  65 N20G32    29.75R
GRAFTON        CLOUDY    41  30  65 N23G31    29.74R
GWINNER        CLOUDY    43  34  70 MISG      29.72R
LANGDON        CLOUDY    41  28  60 N23G29    29.74R
ROLLA          FAIR      41  27  56 N17       29.78R
$$

CITY           SKY/WX    TMP DP  RH WIND       PRES   REMARKS
ABERDEEN       FAIR      48  27  44 N9        29.73R
MOBRIDGE       FAIR      53  24  32 N9        29.69R
BUFFALO          N/A     47  27  45 E12       29.63R
RAPID CITY     CLOUDY    45  32  60 NE10      29.67R
GLASGOW        CLOUDY    53  20  27 E9        29.72R
SIDNEY         FAIR      51  16  24 NE12      29.75R
WOLF POINT     PTSUNNY   53  18  25 E12       29.74R
GLENDIVE       FAIR      50  23  34 E9        29.73R
MILES CITY     CLOUDY    52  26  36 E7        29.69R
BAKER          FAIR      49  22  34 E13       29.71R
$$

CITY           SKY/WX    TMP DP  RH WIND       PRES   REMARKS
BILLINGS       RAIN      40  38  93 N17       29.72R
GREAT FALLS    CLOUDY    41  35  79 N9        29.80R
REGINA         PTSUNNY   48  12  23 E9        29.81R
ESTEVAN        PTCLDY    48  14  25 E9        29.79R
$$





USA.gov is the U.S. government's official web portal to all federal, state and local government web resources and services.